Regional Weather Roundup
Issued by NWS Albany, NY

Home | Current Version | Previous Version | Graphics & Text | Print | Product List | Glossary On
Versions: 1 2 3 4 5 6 7 8 9 10 11 12 13 14 15 16 17 18 19 20 21 22 23 24 25 26 27 28 29 30 31 32 33 34 35 36 37 38 39 40 41 42 43 44 45 46 47 48 49 50
000
ASUS41 KALY 310410
RWRALY

NEW YORK STATE HOURLY WEATHER ROUNDUP
NATIONAL WEATHER SERVICE ALBANY NY
1200 AM EDT MON AUG 31 2015

NOTE: "FAIR" INDICATES FEW OR NO CLOUDS BELOW 12,000 FEET WITH NO
SIGNIFICANT WEATHER AND/OR NO OBSTRUCTIONS TO VISIBILITY.

NYZ032-033-038>043-046>054-057>066-NYZ062>081-310500-
EAST


CITY           SKY/WX    TMP DP  RH WIND       PRES   REMARKS
ALBANY         MOCLDY    70  64  81 SW3       30.02S
GLENS FALLS    CLEAR     63  61  93 CALM      30.01S
POUGHKEEPSIE   PTCLDY    68  66  93 CALM      30.02S FOG
NEWBURGH       CLEAR     72  68  88 CALM      30.05S
MONTGOMERY     PTCLDY    67  65  93 CALM      30.04S
WHITE PLAINS   MOCLDY    71  67  87 CALM      30.04S
ISLIP          LGT RAIN  75  69  81 SW12      30.03R
NEW YORK CITY  CLOUDY    79  69  71 SW7       30.03S
CENTRAL PARK   CLOUDY    76  68  76 VRB5      30.07S
$$

NYZ005>009-017-018-044>046-055-056-310500-
CENTRAL


CITY           SKY/WX    TMP DP  RH WIND       PRES   REMARKS
FULTON         CLEAR     62  60  93 CALM      30.03S FOG
SYRACUSE       PTCLDY    67  66  97 SE3       30.02F
ROME           CLEAR     64  62  93 CALM      30.05S
ELMIRA         PTCLDY    64  64 100 CALM      30.06S FOG
BINGHAMTON     PTCLDY    67  64  90 MISG      30.08F
MONTICELLO     CLOUDY    70  66  88 CALM      30.10S
$$

NYZ026>034-041>043-310500-
NORTH


CITY           SKY/WX    TMP DP  RH WIND       PRES   REMARKS
WATERTOWN      CLEAR     64  60  87 S5        30.01S
FORT DRUM      NOT AVBL
MASSENA        CLEAR     62  59  90 SW5       29.98F
SARANAC LAKE   CLEAR     55  55 100 CALM      30.03F FOG
PLATTSBURGH    PTCLDY    67  60  78 CALM      29.98S
$$

NYZ001>004-010>016-019>021-310500-
WEST


CITY           SKY/WX    TMP DP  RH WIND       PRES   REMARKS
NIAGARA FALLS  CLEAR     68  64  87 S6        30.02F
BUFFALO        PTCLDY    69  64  84 S6        30.03F
DUNKIRK        CLEAR     70  65  84 S6        30.04F
JAMESTOWN      CLEAR     66  63  88 SW6       30.10S
WELLSVILLE     CLEAR     67  64  90 W5        30.13F
ROCHESTER      PTCLDY    65  62  90 SW3       30.04S
PENN YAN       CLEAR     67  65  93 CALM      30.06S FOG
$$

             KEY
       WCI = WIND CHILL INDEX
       VSB = VISIBILITY
       HX  = HEAT INDEX
$$


USA.gov is the U.S. government's official web portal to all federal, state and local government web resources and services.